Theta_e
354 353 353 353 353 352 353 353 354 354 354 353 352 350 349 348 347 345 344 342 342 341 343 345 346 347 349 349 348 346 346 348 348 349 349 350 350 350 349 348 348 348 350 353 353 351 350 352 355 355 353 353 353 352 352 351 350 350 351 352 353 355 356 354 353 353 353 353 352 350 347 345 342 342 341 339 334 328 325 325 324 325 328 328 325
353 352 352 352 352 352 352 353 353 353 353 352 352 350 348 348 347 346 344 343 344 344 343 344 345 347 347 347 347 346 345 345 346 347 348 348 349 350 350 349 349 350 352 354 354 353 354 355 356 356 356 354 354 353 352 350 349 350 352 353 353 353 356 354 351 352 353 352 351 349 345 343 340 340 340 336 330 326 325 324 324 326 328 327 323
352 353 353 351 352 352 352 352 353 352 352 352 352 350 348 347 346 345 344 344 345 346 345 344 344 345 345 345 346 346 345 346 345 346 346 347 348 349 349 349 349 350 354 356 356 356 356 356 356 357 357 354 353 353 353 352 351 351 352 354 352 352 354 353 352 353 353 352 351 349 346 342 340 340 338 334 329 327 327 326 325 326 326 324 321
353 353 353 352 352 352 352 352 353 352 351 351 352 350 349 349 348 347 346 345 345 345 345 344 344 345 345 345 346 346 346 346 346 345 345 346 347 348 348 349 349 351 352 355 357 358 358 357 357 356 356 355 353 352 354 353 352 351 352 353 352 352 352 352 353 354 353 351 350 349 347 344 341 339 336 332 330 330 330 329 326 325 323 321 318
355 356 356 356 355 353 350 351 352 352 352 351 351 350 349 349 349 348 348 347 347 346 345 345 346 346 346 345 345 346 347 347 346 346 346 346 347 347 347 349 350 351 352 354 356 359 359 357 356 357 357 356 354 353 354 353 351 352 353 350 349 351 351 351 351 351 350 350 349 349 348 344 342 339 335 333 332 331 330 329 327 325 322 319 317
358 359 359 359 359 358 355 353 353 352 352 351 351 350 349 348 348 348 348 348 347 346 346 345 345 346 347 346 345 345 346 347 347 346 346 347 347 347 348 349 350 351 352 355 356 357 357 356 356 358 358 356 355 354 354 353 351 351 351 349 349 350 350 351 352 350 349 349 349 348 346 344 342 340 337 335 333 331 330 328 327 325 322 319 318
361 360 359 357 357 359 359 358 357 356 354 353 351 351 349 348 348 347 348 348 348 347 345 345 345 345 346 346 346 345 346 347 347 347 347 347 347 348 348 349 351 351 351 354 357 356 355 354 355 357 357 356 356 355 354 352 351 351 351 350 349 348 347 349 351 351 350 349 349 347 345 343 342 341 338 336 333 331 329 328 327 326 323 322 321
360 359 359 359 358 358 358 358 358 357 356 355 354 353 353 350 349 348 347 348 348 348 347 346 346 345 346 346 345 345 346 346 347 348 348 347 348 349 349 349 350 351 351 354 356 357 357 356 354 355 356 356 357 356 354 352 351 352 353 352 351 349 348 349 350 350 351 350 348 347 345 344 343 341 339 337 334 332 330 328 327 327 326 325 323
359 358 359 358 356 356 356 357 356 354 353 353 354 354 354 353 352 351 350 348 348 348 347 347 347 346 345 345 345 346 346 346 347 349 349 348 349 349 349 350 350 350 352 354 355 357 359 357 355 354 354 356 357 357 355 353 353 354 354 354 354 351 349 350 350 350 351 349 347 347 346 345 343 341 339 338 336 333 330 328 328 328 328 327 324
362 360 360 357 352 350 350 351 352 352 352 353 353 354 354 354 354 354 354 352 350 349 348 348 347 347 346 346 345 346 347 346 347 348 349 349 349 350 350 350 350 350 351 353 354 356 357 358 357 355 353 354 356 357 356 355 355 356 355 353 353 352 350 350 350 351 351 349 346 346 345 344 343 341 339 339 337 335 331 329 329 329 328 326 324
362 362 362 360 357 354 353 353 354 356 357 357 357 358 358 357 357 356 357 356 353 352 352 351 351 349 348 347 346 346 347 347 348 348 348 348 349 351 351 351 352 352 352 353 354 355 355 356 358 358 355 354 355 356 358 356 356 357 356 354 354 354 352 351 350 349 350 348 346 345 345 344 342 340 339 339 338 335 331 330 331 330 328 326 325
361 361 361 360 360 359 359 359 359 359 359 360 359 360 359 358 358 358 358 358 356 355 355 355 355 353 351 350 349 348 347 347 347 348 348 349 350 350 351 351 351 352 352 352 351 352 355 357 359 359 357 356 355 356 357 357 357 358 357 355 355 354 353 352 350 349 349 348 347 346 345 343 342 341 339 339 337 334 332 331 332 331 329 328 325
360 360 360 359 360 360 359 359 359 358 359 359 359 358 357 357 358 357 358 357 356 356 356 356 355 354 353 353 352 351 349 347 347 347 348 349 350 350 350 349 349 352 354 353 351 352 355 357 359 360 358 357 356 356 356 357 357 357 355 354 355 354 353 353 351 350 350 349 347 347 345 343 343 341 340 340 337 334 333 333 333 332 329 327 324
359 360 359 358 358 358 358 358 359 358 358 357 357 357 356 356 356 356 358 357 356 356 356 354 353 352 353 354 354 354 353 350 349 348 347 348 349 350 350 349 350 354 356 355 353 352 352 354 357 359 358 356 356 356 356 357 356 355 354 353 353 354 352 352 351 349 349 349 348 347 345 343 343 341 340 340 338 336 335 334 332 330 328 325 323
359 360 359 357 355 355 355 355 356 358 357 356 356 356 357 356 356 357 358 357 355 356 356 355 353 353 353 353 355 355 354 351 350 349 348 348 349 350 350 350 350 352 353 354 353 351 350 352 354 356 356 355 354 354 355 356 355 354 353 352 351 351 350 349 349 347 348 348 347 346 345 344 342 341 340 340 338 336 335 332 329 327 324 322 321
359 359 358 357 355 355 354 352 352 353 353 353 352 354 355 356 356 356 356 355 355 356 356 355 354 355 354 354 355 356 354 352 350 349 348 348 348 349 350 351 351 352 352 354 355 354 353 353 353 353 354 355 353 352 353 355 354 353 352 350 348 348 347 346 346 345 346 347 346 346 345 343 341 339 338 338 336 334 332 329 327 325 322 321 320
357 357 357 356 355 354 353 352 350 349 350 351 351 352 353 353 354 355 355 355 356 355 355 354 354 355 355 354 355 356 356 354 352 350 349 349 348 348 349 350 351 352 352 354 356 358 358 358 356 354 354 355 354 353 353 354 354 352 351 348 346 345 344 343 344 345 345 346 345 345 343 341 339 337 336 335 335 333 330 327 324 322 321 320 319
356 356 355 354 354 354 353 353 352 350 348 347 348 350 352 351 353 354 353 353 354 353 354 354 354 354 354 355 356 357 357 356 355 354 353 350 349 348 348 350 352 352 352 353 355 356 357 359 359 357 357 355 354 354 354 355 354 352 350 346 343 342 341 340 341 342 343 343 343 341 340 338 336 334 332 332 332 332 331 327 323 320 319 317 316
354 354 353 353 353 353 353 353 353 352 350 348 347 348 351 352 353 353 352 352 352 352 352 352 352 353 353 354 355 356 356 356 356 355 354 353 352 350 349 350 352 354 353 352 353 355 356 358 359 358 357 357 356 356 356 356 355 352 349 346 342 339 338 338 339 339 339 338 337 335 335 333 333 331 330 330 329 329 327 325 321 318 316 314 315
353 352 352 352 351 351 352 352 351 351 351 351 350 350 351 352 352 352 352 353 353 352 352 351 351 352 352 352 353 353 354 354 354 354 354 353 354 354 352 352 352 353 354 353 352 353 354 356 358 357 357 358 357 357 357 356 355 352 348 346 343 338 336 335 336 337 335 333 331 331 330 329 328 327 326 325 323 322 322 321 319 316 314 315 316
353 352 351 350 349 349 349 349 350 350 350 349 349 349 350 350 350 350 350 351 352 352 352 352 352 352 351 351 352 352 353 353 353 353 353 353 354 354 354 354 353 352 353 353 351 351 351 353 354 354 356 358 357 358 358 357 355 352 348 346 344 340 335 333 333 332 331 329 327 326 325 323 322 321 320 319 318 318 318 317 315 314 315 317 317
352 350 349 348 348 348 348 348 348 348 347 347 347 347 347 347 347 348 348 348 349 350 350 350 351 351 350 350 350 351 351 352 352 352 352 352 353 353 354 355 353 351 350 351 351 350 350 350 350 351 354 357 357 357 358 357 355 352 348 346 344 340 334 331 331 329 328 326 324 321 320 319 318 317 316 316 315 315 314 312 311 314 316 317 316
349 348 348 348 347 347 347 347 347 346 345 345 344 344 344 344 345 346 346 346 347 347 348 349 350 350 349 349 350 351 351 351 351 350 351 351 351 351 352 352 352 349 348 348 349 349 350 350 349 351 354 355 356 356 357 356 353 349 347 345 343 338 333 330 329 327 325 323 320 318 316 316 315 314 314 314 313 312 310 309 312 316 316 316 315
349 349 348 347 347 346 346 345 345 345 344 343 342 343 342 342 343 343 343 344 346 347 347 348 348 348 349 349 349 348 348 349 349 349 349 351 351 351 350 350 350 348 346 346 347 348 349 349 349 350 352 354 355 354 355 354 350 347 345 343 339 335 331 329 327 325 322 319 317 315 314 314 313 313 312 312 311 309 309 311 315 316 315 315 315
349 348 347 347 346 345 345 345 344 343 342 341 342 342 343 344 344 342 342 344 346 347 347 347 347 347 348 348 347 346 345 345 346 347 347 348 348 349 348 347 346 344 342 343 345 346 347 349 349 349 351 353 354 352 350 348 346 345 343 338 334 330 328 326 324 321 319 317 316 315 314 313 313 312 311 311 310 309 310 313 315 315 315 314 314
348 348 347 347 345 344 345 344 343 342 341 341 341 341 342 344 344 342 341 342 343 345 347 347 347 347 347 347 347 345 343 343 343 344 343 343 343 343 343 342 341 340 339 340 342 342 343 344 344 342 344 346 345 343 340 338 336 336 334 331 329 327 325 323 320 319 317 316 315 314 314 313 312 311 310 310 309 309 310 312 313 314 314 313 312
348 347 347 346 345 344 344 344 344 343 341 340 341 340 340 341 341 340 339 339 339 340 342 344 345 344 344 346 346 345 343 342 343 343 341 340 339 338 338 337 336 337 337 336 337 337 336 334 332 332 334 334 333 332 330 328 327 327 327 326 325 323 321 319 318 317 316 315 314 313 313 312 311 311 311 310 310 311 311 312 312 311 311 311 311
348 347 346 345 345 344 344 344 344 342 340 339 339 339 338 338 338 338 336 335 335 335 336 339 340 340 341 342 343 344 344 342 342 341 340 339 337 335 335 334 333 333 334 332 331 330 329 327 326 327 326 324 323 322 322 321 321 322 322 321 320 319 319 318 317 316 314 313 313 312 311 311 312 312 312 312 312 312 313 312 311 311 310 311 312
348 347 345 345 344 344 343 343 341 341 340 338 337 336 336 335 335 335 334 332 332 331 332 334 336 336 337 337 338 341 342 340 338 337 337 337 335 333 333 332 331 330 330 330 328 326 324 324 323 322 321 319 318 318 318 318 319 319 319 319 319 318 318 317 315 314 312 312 312 312 311 312 313 313 312 312 312 312 312 312 312 312 313 313 313
346 345 345 344 344 343 343 342 341 341 340 337 335 335 335 335 334 334 333 332 331 331 331 333 333 334 335 334 334 336 338 336 333 332 332 333 333 332 331 330 329 327 326 327 326 322 321 320 319 318 318 317 317 317 317 316 316 316 316 316 316 315 315 314 313 312 312 312 313 313 313 313 313 313 313 313 312 312 313 314 313 313 313 314 314
347 346 345 344 344 344 343 343 343 343 341 339 337 336 336 335 334 333 332 332 332 331 332 332 332 333 334 333 332 333 333 332 330 329 329 330 330 330 329 327 326 325 324 324 322 320 319 319 318 317 316 316 315 315 315 314 314 314 314 313 313 313 313 313 313 312 312 313 314 313 313 314 314 314 313 313 313 314 315 315 313 312 313 314 313
348 346 345 345 344 343 342 343 344 344 343 342 341 340 339 336 333 332 332 332 332 331 331 331 331 331 332 332 332 331 331 330 328 328 328 329 329 328 327 325 324 323 322 322 321 320 320 319 319 318 317 316 315 315 314 314 313 313 313 313 312 313 313 312 312 313 314 315 315 314 314 314 314 314 313 313 314 315 315 314 313 313 314 314 313
347 346 345 345 344 342 342 342 342 342 343 343 342 341 341 340 336 332 329 330 331 330 330 331 331 331 332 331 331 330 329 328 327 327 328 328 327 326 325 324 323 323 323 323 322 321 321 320 319 318 317 316 315 314 313 313 313 313 313 314 313 313 311 311 312 315 317 317 316 315 315 314 314 314 314 314 315 314 315 315 314 314 315 315 314
347 346 344 344 344 343 342 342 341 342 342 342 342 342 341 342 341 335 330 329 330 331 331 331 332 332 332 331 330 328 328 327 327 327 327 326 325 325 324 323 324 324 325 324 323 322 321 320 319 318 317 316 315 314 313 313 313 313 314 314 313 313 313 313 316 318 318 316 316 315 315 314 314 314 314 314 314 314 314 314 314 315 316 315 314
347 346 344 344 344 344 343 342 342 342 342 342 342 342 341 342 342 339 336 334 334 334 332 331 332 332 330 329 328 327 327 327 327 326 326 325 324 324 324 324 325 326 326 325 324 323 322 321 320 319 317 316 316 315 314 314 314 314 314 313 313 315 316 317 318 317 316 316 315 315 314 314 315 315 314 313 312 312 313 313 314 315 315 314 313
347 345 344 343 342 342 343 342 341 342 342 341 341 341 341 341 341 340 340 340 338 336 331 329 330 330 328 326 326 325 326 326 326 325 325 325 325 325 325 326 327 328 327 326 325 324 324 323 322 320 319 318 318 317 317 316 315 316 316 315 315 317 318 318 317 316 315 315 315 315 315 315 315 314 314 312 312 312 312 312 313 313 314 314 314
346 344 343 343 342 342 343 343 342 341 340 340 341 341 341 340 340 340 341 340 338 334 331 329 330 329 326 324 323 324 325 325 325 324 324 324 325 327 329 330 330 329 329 328 326 326 325 324 323 322 320 320 319 319 319 318 318 318 318 318 318 318 318 317 317 316 315 315 315 315 314 314 314 314 313 312 312 312 312 312 312 313 314 315 314
345 344 343 342 342 342 342 342 342 340 339 339 340 340 340 340 340 340 340 339 338 335 333 331 331 330 327 323 321 322 323 324 323 323 323 323 324 327 329 331 331 330 330 329 327 327 327 326 324 323 322 321 321 321 320 320 319 319 318 318 318 318 317 316 315 315 314 314 314 314 313 314 314 314 313 312 312 312 312 312 312 313 314 315 314
344 344 343 341 340 341 341 342 342 340 339 339 339 340 340 340 340 339 339 338 337 336 335 334 333 332 328 323 320 320 321 321 321 322 321 322 323 326 329 331 331 330 330 329 328 327 327 326 325 325 323 322 321 321 320 319 318 318 318 318 318 316 315 315 315 314 314 314 314 313 313 313 313 313 312 312 312 313 313 313 313 313 314 314 314
343 343 342 340 339 338 339 340 341 340 340 339 339 340 340 339 339 339 339 337 336 336 335 335 334 332 329 325 322 321 321 322 322 322 322 323 324 327 330 332 331 330 330 330 328 328 328 327 326 325 324 323 322 321 320 319 318 318 318 318 318 316 315 315 315 315 314 314 314 313 313 313 313 313 313 313 313 313 314 314 314 314 314 314 313
342 342 341 340 338 337 337 338 339 339 339 340 339 340 340 339 339 339 339 338 337 335 335 336 335 332 330 328 324 322 323 325 325 325 325 326 328 330 332 332 330 329 329 329 328 327 327 326 326 325 324 323 322 321 320 319 319 319 319 320 318 316 314 315 315 314 313 313 314 314 313 314 314 314 313 314 314 314 314 314 314 313 314 313 313
339 340 340 338 337 336 336 337 337 338 339 339 340 339 339 339 338 338 338 338 337 336 335 336 335 331 330 329 327 325 325 327 328 328 328 329 331 332 332 332 330 328 328 328 327 326 327 326 325 325 324 323 323 322 321 320 320 321 321 320 319 316 314 314 316 315 313 313 315 315 313 313 314 314 314 314 314 314 314 314 313 313 313 312 312
338 337 337 337 337 338 338 337 336 337 338 340 340 339 338 338 338 338 338 338 337 336 335 335 334 332 330 330 329 327 326 327 329 330 330 330 331 332 331 331 329 327 327 327 327 327 326 326 325 324 324 324 323 323 322 321 321 321 320 320 318 316 314 315 316 315 313 314 316 316 313 314 315 314 313 314 314 314 314 314 313 313 313 312 311
337 336 335 336 337 337 337 337 336 335 335 338 339 339 338 338 338 338 338 337 337 337 336 335 335 332 330 329 329 328 327 327 328 330 331 331 331 331 331 330 328 327 326 327 327 326 326 325 325 324 323 323 323 322 321 321 321 320 319 319 317 316 315 315 316 316 314 314 316 316 314 314 314 314 313 313 314 313 314 314 313 313 313 312 310
336 336 335 336 335 335 334 335 334 334 334 334 336 338 339 338 338 338 338 338 337 336 335 335 335 332 330 329 329 329 329 328 329 330 331 331 331 331 331 329 327 326 326 326 326 327 326 325 324 323 323 322 322 321 320 320 320 319 319 318 317 316 316 315 316 316 315 315 316 317 315 314 314 313 313 314 314 313 313 313 313 313 313 312 311
335 335 335 335 334 333 333 333 333 332 332 333 334 335 336 337 337 336 336 337 337 335 334 334 334 332 330 330 329 329 330 329 329 330 331 331 330 331 330 329 327 327 326 325 325 326 325 325 324 323 322 322 321 320 320 320 319 319 319 317 316 316 316 315 316 317 316 315 316 317 315 315 315 314 313 313 314 313 313 313 313 312 312 312 311
336 335 335 334 334 333 333 333 333 332 332 332 332 333 332 333 334 334 334 334 335 334 334 334 334 333 331 330 330 330 330 329 330 330 331 331 330 330 329 328 327 327 326 325 325 324 324 324 324 322 322 321 321 320 320 321 320 319 319 317 316 316 317 316 315 317 316 315 315 316 316 315 315 313 313 313 314 313 313 313 313 312 312 311 311
337 336 335 334 334 334 334 334 334 333 333 332 332 332 331 331 332 332 333 333 333 333 333 332 333 333 333 331 330 330 330 329 329 330 330 330 330 329 329 329 328 328 327 326 324 324 324 324 323 322 321 321 322 321 321 321 320 320 320 319 318 317 318 316 315 316 316 315 315 316 316 315 315 314 313 313 314 313 313 313 313 312 311 311 311
335 335 334 334 334 335 335 334 334 334 333 333 332 332 332 331 331 331 331 331 332 332 332 331 331 332 332 331 331 331 330 330 330 330 329 330 330 330 329 330 329 329 328 327 325 324 324 323 322 321 321 321 322 322 321 321 321 320 320 320 319 318 318 318 316 316 316 316 315 315 316 315 315 313 312 313 313 313 312 313 313 312 311 311 311
334 334 333 333 333 333 334 334 334 334 334 333 333 332 332 331 331 331 331 331 330 331 331 331 331 331 331 331 331 331 331 331 330 330 330 329 330 330 330 330 330 330 329 328 326 324 324 323 322 321 321 321 322 322 322 322 321 321 320 320 320 319 319 318 317 316 316 316 315 315 315 315 315 314 312 312 313 312 312 312 313 312 311 312 311
334 333 333 332 332 332 332 332 333 334 334 333 333 332 332 331 331 331 330 330 330 330 331 331 331 331 331 331 330 330 330 330 330 330 330 330 330 331 331 330 330 330 330 329 327 325 324 323 323 322 322 322 322 323 323 322 322 321 321 320 320 319 319 318 317 316 316 316 315 314 315 315 315 314 313 312 313 312 312 312 313 312 312 312 311
Wind_Speed
18 17 17 19 20 20 21 21 21 21 22 22 22 23 23 23 24 23 22 22 23 23 22 20 19 19 21 22 21 20 20 21 20 20 21 21 20 18 17 17 18 18 17 15 15 14 12 11 12 11 9 10 10 10 10 9 8 8 5 6 7 8 11 13 11 9 8 10 14 17 18 19 16 14 15 16 15 16 17 17 16 14 13 13 12
17 16 16 16 18 21 23 23 23 24 24 24 25 25 24 23 24 23 23 22 21 21 22 22 20 20 20 22 23 22 21 22 22 20 19 20 20 18 17 17 16 14 14 15 16 16 13 11 10 10 9 9 10 11 12 10 9 8 6 6 7 7 9 12 13 12 11 13 16 18 17 18 17 14 13 16 18 18 17 16 15 13 12 12 13
15 15 15 14 15 17 20 22 23 22 22 24 25 24 22 22 23 23 23 22 21 21 21 22 22 23 22 23 24 24 23 22 22 21 20 20 21 20 18 18 17 16 15 15 16 17 16 13 10 9 11 11 11 10 11 11 11 8 5 7 8 9 9 10 12 12 14 15 16 18 17 17 18 15 14 18 19 17 16 15 14 13 12 11 13
13 13 14 14 14 14 16 19 21 20 20 22 23 23 21 21 23 23 21 20 20 22 22 23 23 24 24 23 23 23 23 22 22 22 22 20 20 20 20 19 18 16 16 17 16 16 17 16 14 13 13 14 13 11 10 11 12 9 8 7 8 10 9 11 12 14 16 16 15 17 17 17 18 17 18 20 18 16 16 15 14 14 13 13 15
12 10 10 11 11 12 13 14 16 19 21 19 18 21 21 21 23 23 21 21 21 21 22 22 22 23 24 23 22 21 20 20 20 21 21 20 18 19 19 20 19 16 16 17 17 17 17 17 16 15 14 13 13 11 10 10 10 11 9 2 5 7 7 10 13 15 17 16 14 15 16 18 19 18 20 22 20 18 16 15 15 14 15 16 16
11 10 9 8 6 7 10 10 9 14 18 17 16 17 18 18 19 21 23 23 23 22 22 23 23 22 23 23 22 21 20 20 20 19 19 19 19 19 19 18 18 17 17 16 17 18 19 18 17 16 15 14 14 13 12 12 11 10 8 4 3 8 8 7 10 15 18 17 16 18 18 19 20 20 20 22 23 22 18 15 15 15 16 18 17
10 9 9 10 8 7 7 8 7 8 10 13 14 13 13 16 16 17 20 20 20 22 22 22 22 23 22 22 22 22 22 22 22 20 19 19 19 19 20 19 18 18 17 17 16 17 19 20 19 18 17 16 16 14 14 15 13 10 7 7 8 11 11 10 11 14 19 18 17 19 19 19 20 20 21 22 22 22 20 18 17 16 17 18 18
10 9 8 9 10 10 9 8 8 8 7 8 9 8 8 11 12 14 17 18 17 19 19 18 20 21 22 22 23 22 22 23 23 22 21 21 20 19 19 19 19 19 18 18 17 16 18 21 21 19 17 17 17 16 15 15 13 10 9 10 9 10 14 16 14 14 18 18 17 18 18 18 17 18 21 22 21 19 19 20 20 19 18 17 18
11 10 9 9 10 11 11 11 11 12 11 11 11 11 10 10 9 10 12 14 14 15 16 16 18 20 20 20 20 21 22 22 22 22 21 21 21 20 19 19 19 19 19 21 20 18 17 19 21 21 19 19 18 16 16 15 12 11 12 12 8 8 13 15 14 16 18 17 17 17 18 17 17 19 21 22 22 21 20 19 19 18 17 17 18
11 11 11 11 12 13 13 13 13 12 12 12 13 14 14 14 12 9 7 8 10 11 13 15 16 16 17 19 20 19 20 22 21 21 21 21 21 21 20 21 21 19 19 21 21 22 21 19 20 21 21 21 20 17 16 16 13 12 13 13 10 8 11 12 13 16 18 17 18 18 16 17 19 21 21 20 22 22 21 21 19 17 17 17 16
10 10 11 11 11 12 12 13 12 10 10 10 11 11 12 12 12 11 9 7 8 8 10 12 14 14 15 18 20 19 20 21 22 23 23 24 24 22 20 20 20 19 19 19 20 23 24 21 19 19 20 21 21 19 18 17 15 14 14 15 14 12 12 12 13 16 17 17 19 18 17 17 19 21 20 19 21 22 23 24 21 18 18 16 12
11 11 12 11 11 11 11 11 12 11 10 10 10 10 10 10 10 9 9 8 8 9 11 12 14 14 14 14 15 17 19 21 23 24 25 26 26 25 22 21 19 19 21 22 22 22 23 22 20 19 19 21 22 21 19 18 17 17 17 17 17 16 15 14 15 18 20 20 20 20 20 20 21 23 22 20 22 23 24 24 22 19 18 16 14
11 11 11 11 10 10 10 10 10 11 12 11 10 10 9 9 10 9 10 11 12 12 12 13 14 15 15 15 15 15 17 19 22 24 25 26 28 28 26 25 22 21 23 24 24 24 23 22 21 21 21 22 22 22 21 20 20 19 18 17 18 18 18 17 16 17 20 23 22 21 22 22 24 26 25 23 24 24 23 23 21 19 17 16 17
11 10 10 11 12 11 9 8 8 9 10 10 10 10 9 9 10 11 14 17 17 15 16 16 15 15 15 16 17 17 16 17 19 20 21 24 28 29 28 28 25 22 22 23 24 25 24 24 24 24 25 25 24 24 23 21 19 18 18 18 19 20 20 19 18 16 17 21 21 20 22 23 24 26 26 26 27 27 26 25 21 19 18 16 16
9 8 9 10 11 11 10 8 7 7 8 8 7 8 9 11 13 14 16 18 18 18 19 19 19 18 18 18 18 18 18 18 19 19 18 19 24 27 29 29 27 25 24 24 24 25 25 26 27 27 28 28 27 26 26 24 20 18 18 17 18 20 21 21 19 18 18 20 20 20 21 21 23 25 26 27 28 28 27 26 21 20 19 16 15
8 8 8 7 8 8 8 8 7 6 7 7 7 8 11 14 15 15 16 17 17 18 20 21 20 21 21 21 20 20 22 22 22 22 20 18 20 24 28 29 27 26 26 24 24 24 25 27 28 29 29 30 29 28 27 25 23 19 17 17 18 20 20 20 19 19 20 21 20 20 21 22 24 26 27 29 29 27 25 23 21 20 20 17 15
9 9 9 7 6 6 6 5 4 4 5 6 7 9 11 13 15 15 15 16 17 18 20 21 22 21 22 22 22 23 26 26 25 25 25 22 19 21 26 29 28 27 27 25 24 24 26 27 28 29 29 30 30 28 27 26 25 21 19 20 21 19 18 18 18 18 19 20 19 21 22 23 24 25 26 27 28 27 26 25 23 22 21 18 14
6 7 7 6 5 4 3 4 4 4 4 5 8 11 13 14 15 15 15 15 15 16 16 19 21 21 21 22 23 24 26 28 28 28 28 26 22 21 23 25 26 28 27 27 26 25 25 27 28 28 29 30 31 29 27 28 27 25 24 25 23 20 19 18 18 19 18 19 21 23 23 24 24 24 24 26 26 26 26 26 25 24 22 18 15
4 4 4 3 2 2 1 2 2 3 4 6 9 11 12 12 12 13 13 13 13 14 14 16 19 20 21 23 23 24 27 29 29 29 29 28 26 25 23 23 25 27 27 27 27 27 27 27 28 29 29 28 30 30 30 32 32 29 29 29 25 22 23 23 23 24 25 25 26 26 25 24 24 25 25 25 24 22 22 23 24 23 21 19 18
4 3 3 3 2 1 1 1 1 2 1 1 3 4 6 7 7 9 10 10 10 12 14 14 15 17 19 20 22 24 27 28 29 29 28 27 25 24 24 24 24 25 25 25 25 24 24 25 26 30 31 30 30 30 31 35 36 32 31 31 28 26 27 28 28 30 31 32 31 30 29 27 26 27 26 25 24 22 19 19 19 19 19 19 20
4 3 4 3 2 1 1 2 2 2 2 3 3 2 3 5 6 7 9 10 9 10 12 13 13 15 17 19 21 23 25 26 27 28 28 27 25 25 26 28 28 26 22 21 20 20 21 22 23 26 29 32 33 31 31 36 38 35 34 34 31 30 30 31 31 32 33 33 32 31 31 30 29 28 27 25 23 21 19 18 18 17 16 19 21
3 2 2 2 1 1 1 1 1 2 1 1 2 3 4 5 6 7 8 9 9 10 10 11 13 15 17 18 20 22 23 24 24 26 27 26 26 26 28 30 31 27 21 21 23 24 23 23 24 26 29 32 35 34 32 35 39 37 35 34 31 29 32 33 33 33 34 34 33 31 30 30 30 28 26 24 23 22 21 20 19 17 15 17 20
2 2 2 2 2 1 1 2 2 3 5 5 3 2 3 3 5 6 6 7 8 9 9 9 10 12 14 15 16 18 20 20 20 20 23 24 24 25 26 29 28 24 21 24 28 29 27 26 25 27 29 31 35 37 34 36 39 37 34 34 32 30 33 35 34 34 34 33 32 30 29 29 30 28 26 25 23 21 20 19 18 16 15 15 16
3 2 3 2 2 2 2 2 4 6 6 7 5 2 5 4 2 3 4 6 7 7 8 8 7 8 9 10 11 13 14 15 14 15 17 19 20 22 23 25 26 23 22 25 26 25 26 28 28 27 27 29 33 35 35 36 39 37 34 33 33 33 36 37 35 35 34 32 31 31 30 29 29 28 26 24 21 19 18 17 16 16 15 15 15
3 3 3 3 3 3 3 4 4 4 3 3 3 6 8 8 6 2 4 7 9 8 8 7 7 7 7 7 8 9 10 11 10 10 10 11 14 16 17 19 19 17 16 21 25 23 23 27 29 28 28 29 30 31 31 31 35 37 36 34 34 35 37 36 34 32 29 27 28 29 28 27 26 25 23 21 19 17 17 16 15 15 16 15 14
4 3 3 4 4 4 5 5 5 5 5 3 2 2 4 6 8 4 2 7 8 8 8 8 7 6 6 6 7 7 8 8 8 7 8 8 8 9 11 11 10 8 6 11 17 18 17 19 21 21 21 22 22 22 23 24 26 28 31 33 34 35 35 35 34 31 27 25 25 25 25 24 23 21 19 18 17 16 17 17 16 16 17 16 15
5 4 4 5 4 4 6 8 8 6 7 3 3 6 6 4 4 4 3 6 7 7 7 6 5 5 5 5 5 6 7 6 5 5 6 7 6 6 6 6 4 4 3 5 6 7 8 9 10 12 15 17 19 21 22 24 27 29 30 30 30 31 31 32 32 31 30 30 29 27 24 22 20 19 18 18 18 18 19 19 19 18 18 18 18
6 6 5 5 4 4 6 8 8 4 7 6 2 1 4 6 7 6 4 5 5 6 7 6 5 5 6 5 3 5 5 2 2 3 4 4 5 5 5 3 2 3 4 7 9 10 13 16 17 18 18 20 23 26 26 27 29 30 30 30 30 30 30 31 31 30 30 30 29 27 25 22 20 19 19 18 19 20 20 19 18 19 20 20 19
7 7 6 6 6 6 6 7 7 5 8 7 5 3 2 4 4 2 4 5 4 5 5 5 5 5 6 7 6 5 3 1 2 5 4 4 5 4 3 3 4 8 9 10 14 19 21 22 23 23 24 25 27 28 28 29 29 29 29 29 29 30 30 31 31 30 29 28 28 27 25 23 21 20 18 17 18 20 19 18 18 19 20 19 18
7 6 7 7 5 5 6 7 6 4 5 8 9 8 6 4 3 1 3 4 3 4 4 5 5 3 4 6 6 4 4 4 5 5 4 4 4 3 1 3 9 14 15 16 19 23 23 22 22 23 23 24 23 22 23 25 25 25 25 26 27 27 27 27 28 28 27 27 26 26 25 23 21 19 17 17 18 19 17 17 18 20 20 18 17
8 7 7 7 5 5 5 3 3 2 3 9 9 7 5 3 2 2 2 2 2 2 3 5 6 4 2 3 5 4 4 5 4 2 1 2 3 3 5 9 14 17 18 20 21 20 19 18 18 17 17 18 17 16 17 19 20 22 24 25 25 26 26 26 26 26 26 24 24 24 23 21 20 19 18 17 18 17 15 16 19 20 18 17 17
9 8 7 6 5 5 5 4 5 4 2 5 5 5 5 5 5 3 2 0 1 1 2 4 4 3 4 3 3 3 3 3 3 5 6 8 10 12 13 16 18 18 18 19 18 16 15 15 15 14 14 15 15 16 17 17 17 20 22 22 22 23 24 25 26 25 24 23 22 22 21 20 19 19 18 18 17 16 15 16 19 19 17 15 17
9 8 7 7 5 4 4 5 5 5 3 3 4 5 6 7 8 7 5 3 4 3 0 2 5 6 7 5 3 3 5 5 8 10 11 14 18 19 20 21 20 18 16 15 14 13 13 13 13 13 13 14 15 16 17 17 17 18 18 19 20 21 23 25 24 22 21 21 21 20 19 19 19 18 18 18 17 16 16 16 18 18 15 14 17
9 7 7 7 7 7 6 6 6 6 6 7 6 7 9 9 8 11 10 8 7 6 4 4 6 8 8 8 7 6 8 11 14 15 17 21 23 24 24 23 19 15 13 12 12 12 12 12 13 13 14 15 16 17 18 18 18 18 18 18 20 21 22 23 21 19 19 20 20 19 19 20 19 18 18 18 17 16 17 17 17 17 15 14 17
8 6 6 6 6 7 8 8 7 7 7 8 8 8 9 9 7 10 12 11 10 8 7 5 5 6 7 8 9 9 11 15 18 20 23 26 26 26 24 20 15 13 12 12 11 12 12 13 14 14 16 17 17 18 19 19 19 19 19 20 21 21 20 20 19 18 19 19 19 19 20 20 19 18 18 18 17 17 18 18 18 17 16 15 17
9 8 7 7 7 7 8 7 6 7 7 7 7 7 9 9 9 9 10 10 10 10 8 6 5 5 5 7 9 11 13 17 22 25 25 26 27 25 21 16 12 11 11 11 12 12 13 14 14 16 17 18 18 19 20 20 20 20 20 21 22 21 20 20 19 19 19 19 19 20 20 20 19 18 18 18 18 18 18 18 18 18 17 17 18
11 9 8 9 8 7 6 5 6 7 7 6 5 6 8 8 10 11 10 5 11 11 9 8 6 3 3 5 8 11 14 18 22 24 24 24 24 18 10 9 11 11 10 11 12 12 13 15 16 17 18 18 18 19 19 19 20 20 20 21 21 21 20 21 21 21 20 19 19 20 20 19 19 19 18 18 18 17 18 18 18 18 18 18 18
10 9 7 8 7 6 5 5 5 5 6 6 5 6 8 9 10 12 8 4 10 10 9 9 6 3 3 4 6 11 15 18 21 24 23 24 23 13 3 3 10 12 11 13 14 13 13 15 16 16 17 18 18 19 19 19 20 19 20 21 21 21 20 20 21 22 21 19 19 20 20 19 19 19 18 18 18 18 18 19 19 20 19 19 19
9 8 7 6 5 4 3 4 5 5 6 6 5 7 8 9 10 9 4 4 6 5 6 6 5 5 6 6 7 11 15 16 18 21 21 22 21 15 10 5 10 12 11 14 16 16 16 17 17 17 17 18 19 19 19 20 20 20 20 20 20 21 21 21 22 23 21 19 19 21 20 19 20 20 19 18 18 19 19 19 20 20 19 19 19
7 8 9 8 6 4 3 4 5 5 5 5 6 7 8 9 10 10 6 3 2 2 3 5 6 7 8 7 9 12 12 11 12 14 15 16 16 14 13 10 12 13 14 15 15 16 18 19 18 17 17 18 19 19 19 20 20 21 21 20 20 21 22 21 22 23 22 19 19 21 21 20 20 20 20 19 19 19 19 19 20 20 19 18 18
8 6 8 9 8 7 6 6 7 7 6 6 7 8 9 9 9 9 10 7 4 5 7 7 7 8 8 9 12 13 11 8 9 11 11 13 14 12 10 9 10 11 12 12 10 10 13 16 16 15 17 18 18 19 20 20 20 20 21 20 20 21 22 21 22 23 23 20 20 22 22 21 20 21 21 20 19 20 19 19 19 19 18 18 18
13 10 4 4 6 6 6 8 8 8 8 8 8 8 8 8 8 8 9 10 8 8 8 6 9 11 9 7 10 15 14 9 9 11 11 12 12 9 8 10 9 10 10 9 8 7 10 13 15 15 17 18 19 19 20 20 20 21 21 20 20 22 23 22 22 23 23 21 21 22 22 20 20 21 20 19 19 20 19 19 19 19 18 19 19
16 16 11 7 6 6 8 12 12 8 7 8 9 9 8 8 8 8 10 11 9 8 8 7 10 13 11 6 7 15 17 12 10 10 12 12 11 10 11 12 10 11 11 11 12 12 12 14 16 16 17 18 19 19 20 20 20 21 21 20 21 22 23 22 22 23 24 22 21 22 22 21 21 21 20 20 20 20 19 20 20 19 19 20 20
8 10 11 10 7 6 9 14 16 13 8 7 8 9 9 9 9 9 9 10 9 8 10 10 11 12 11 9 11 16 19 16 12 11 13 14 14 13 14 13 11 12 13 13 15 15 14 15 16 16 17 18 19 19 19 20 20 20 20 21 21 22 23 23 22 24 25 23 21 22 23 21 21 22 21 20 21 21 20 21 21 20 20 20 20
5 7 10 11 10 10 12 16 21 23 19 11 8 9 9 9 10 10 10 10 9 9 10 9 12 14 13 14 17 20 21 18 14 12 13 15 15 15 15 15 13 12 14 13 14 15 16 16 17 16 17 18 19 19 19 19 20 20 20 21 22 22 23 24 23 24 25 24 21 22 24 22 22 23 22 21 22 22 21 21 22 21 20 20 20
6 8 11 11 11 12 12 13 17 22 25 22 17 12 8 8 9 10 10 10 10 11 12 9 11 15 13 15 19 21 21 20 16 14 13 14 15 16 17 18 16 12 12 13 14 15 16 16 16 17 18 19 19 20 20 19 20 21 21 21 22 22 22 23 22 23 25 24 22 22 23 23 22 23 23 22 23 22 21 21 22 22 21 21 20
8 9 10 11 12 12 11 10 10 13 17 20 22 22 16 10 10 11 12 11 10 10 12 9 9 15 14 14 18 20 20 20 18 16 15 17 18 19 19 18 16 14 13 13 15 16 16 15 16 17 18 20 20 21 20 20 20 20 20 20 21 21 22 22 22 23 25 25 22 22 23 23 22 23 23 22 23 23 21 21 23 22 21 21 20
9 9 9 9 10 10 10 11 10 10 10 10 12 16 18 17 13 10 9 8 9 11 13 12 9 14 15 16 17 17 17 18 18 17 16 16 17 18 18 17 16 15 16 15 16 17 17 18 18 19 19 21 22 22 22 21 20 21 21 21 21 21 22 22 22 22 24 25 23 22 22 23 22 23 23 22 23 24 22 21 22 23 22 21 21
9 10 10 10 10 9 9 10 10 9 8 7 7 9 14 19 19 16 12 10 8 8 11 12 11 11 13 16 18 18 17 17 17 16 16 16 16 16 17 17 16 17 17 16 15 17 18 20 21 21 20 21 23 24 24 23 22 21 21 22 21 21 21 23 23 22 23 25 24 22 22 22 23 23 23 23 23 24 22 21 22 23 22 21 22
8 8 8 9 9 8 8 9 8 6 7 8 8 9 11 14 17 17 15 13 13 13 13 11 11 11 10 8 10 14 16 16 16 16 15 16 16 16 16 16 17 19 19 17 15 16 18 21 22 23 22 23 24 24 25 25 24 24 23 22 22 22 22 23 24 23 23 24 25 23 21 21 22 23 23 23 23 24 23 21 21 22 22 22 22
7 9 8 9 11 10 8 8 8 6 6 7 7 8 8 10 12 15 15 13 12 14 16 16 15 15 15 14 10 6 3 7 10 12 13 15 16 17 17 18 18 19 20 19 17 18 19 21 23 24 24 24 25 26 26 26 26 25 24 24 24 24 24 24 25 25 24 25 25 24 22 22 22 23 23 23 24 24 24 22 22 22 22 22 22
Wind_Direction
194 195 192 194 197 199 205 207 208 210 208 205 206 209 212 211 213 219 218 215 217 215 214 220 219 209 208 215 220 221 218 215 216 218 218 220 222 226 232 237 234 229 231 239 247 254 256 255 259 263 271 277 277 276 276 274 268 258 230 177 151 153 159 150 140 141 151 158 150 143 149 154 154 162 164 156 151 147 143 140 139 136 125 110 101
193 193 197 199 193 189 194 200 203 206 205 203 206 210 211 209 210 216 219 219 219 216 214 216 219 217 215 217 220 223 225 221 219 220 220 221 221 224 231 238 236 226 226 234 239 243 248 247 254 262 267 274 277 277 276 273 270 258 221 186 163 157 165 161 153 148 149 155 152 147 153 157 152 162 173 159 150 148 143 140 139 133 122 114 109
191 192 200 205 201 194 193 196 201 205 203 201 205 210 210 209 212 216 218 218 218 219 219 218 217 218 221 221 218 220 226 225 221 221 224 223 219 219 226 235 234 224 223 234 237 238 242 240 245 252 252 254 258 266 272 269 269 260 213 194 183 171 170 166 161 157 153 157 156 150 153 155 151 160 172 161 152 147 140 138 139 130 121 117 112
189 192 203 211 214 210 199 195 198 205 209 206 206 208 209 210 215 218 220 220 220 221 222 221 219 218 222 226 221 218 221 223 222 220 223 224 219 216 221 229 232 226 224 232 233 232 234 235 239 241 245 252 249 252 267 270 272 266 240 214 176 163 166 166 171 171 161 159 160 157 157 156 153 157 162 157 151 146 143 145 143 132 123 121 115
185 185 195 207 218 220 213 204 198 204 214 216 214 212 210 213 215 213 217 222 223 223 223 223 221 218 221 227 228 224 221 222 223 219 220 224 223 223 224 224 227 229 231 234 231 227 229 235 240 239 245 254 250 252 267 275 288 291 280 261 128 163 193 177 170 173 167 161 157 157 157 153 153 157 158 155 152 150 149 150 146 136 130 127 120
184 182 186 195 207 214 218 222 218 215 215 217 226 224 216 220 219 210 214 222 224 224 223 224 223 221 220 224 228 229 225 224 228 225 221 223 225 228 229 226 227 229 233 237 238 237 237 238 239 238 240 245 242 245 250 250 262 279 290 311 162 184 201 188 169 166 165 161 155 157 158 154 152 156 160 160 158 154 148 148 150 147 141 133 126
179 181 190 200 209 214 218 225 235 236 219 213 227 233 223 226 228 220 219 220 223 226 226 223 223 223 222 223 226 228 225 224 228 228 225 227 228 227 226 226 227 229 231 233 234 238 238 236 236 237 239 242 241 243 244 243 245 246 259 261 214 182 182 195 190 168 159 157 156 158 162 162 157 158 164 165 160 155 151 152 157 159 154 143 138
182 185 189 197 206 215 223 228 234 242 239 223 228 243 238 229 232 236 231 222 224 232 232 230 228 227 227 227 226 228 228 226 224 224 225 227 230 232 229 226 226 227 229 230 228 230 233 235 237 238 241 244 244 243 241 241 239 234 243 245 218 178 174 182 178 165 158 156 157 159 163 167 163 158 160 161 159 160 162 163 164 170 171 160 152
187 189 193 199 209 216 219 226 234 239 243 239 236 245 254 248 246 252 242 230 231 233 234 240 239 233 233 235 232 230 230 230 227 224 224 225 229 234 234 233 232 228 226 227 227 223 224 232 237 239 241 243 244 242 237 237 238 234 240 243 227 182 174 174 167 164 162 157 158 161 162 167 167 161 162 165 167 170 170 169 171 175 169 156 150
186 188 196 208 219 225 227 229 234 239 243 244 242 246 253 255 258 269 267 255 254 244 239 247 250 245 244 245 245 242 236 235 234 230 227 227 228 231 233 235 237 235 230 227 224 223 225 231 239 243 242 240 240 238 232 235 239 237 241 245 238 205 182 173 165 165 163 158 163 167 165 170 173 171 173 177 177 175 171 170 172 169 153 140 141
195 196 202 210 216 220 224 227 228 232 238 243 247 250 255 259 260 266 273 274 275 264 252 253 255 251 245 241 242 243 240 239 238 235 233 232 229 228 232 235 235 236 235 230 225 227 229 231 236 242 239 234 233 231 230 234 234 232 237 240 237 226 204 184 175 178 176 167 168 174 175 177 180 178 181 183 179 175 172 170 170 167 157 148 150
206 208 211 214 216 216 219 222 223 227 232 236 243 248 256 263 265 272 281 277 270 263 256 258 259 253 249 249 246 240 240 244 244 241 237 234 229 227 230 236 240 240 239 236 232 229 227 225 228 232 231 228 229 229 231 232 225 222 230 232 230 228 219 203 189 189 189 179 175 182 185 184 183 183 185 184 179 175 172 172 174 173 167 162 163
210 213 213 213 217 220 223 227 229 234 239 241 244 249 254 257 256 262 265 254 245 244 246 252 259 257 258 264 264 252 245 246 247 245 242 238 232 228 228 232 236 236 234 234 231 225 221 220 220 224 227 228 228 230 232 232 229 230 233 232 227 224 220 213 202 196 195 189 186 190 191 188 184 185 187 184 177 173 172 175 180 176 167 163 168
205 207 209 213 219 220 223 229 230 235 241 242 245 251 256 253 242 239 246 245 239 238 242 244 248 252 253 256 262 263 257 252 252 253 252 246 236 230 229 229 230 232 235 235 232 228 228 226 221 223 228 229 228 229 229 226 224 227 227 225 226 225 220 215 209 204 200 196 196 196 193 189 186 184 185 181 175 174 175 176 175 168 163 164 169
200 199 205 219 227 224 222 227 230 238 245 245 247 252 254 252 243 237 242 248 245 242 245 246 245 247 247 247 253 258 255 251 254 258 261 254 242 236 232 229 228 232 238 239 236 235 235 232 228 228 231 233 233 232 229 221 212 211 213 214 220 222 219 216 214 210 206 202 201 198 192 189 186 181 179 176 173 174 175 173 169 164 160 156 158
195 199 204 218 232 232 225 223 223 231 242 242 240 241 245 251 251 244 243 248 248 246 248 250 251 251 250 249 250 252 248 243 245 251 256 257 251 241 235 232 230 231 235 237 236 236 234 231 231 232 232 234 234 232 229 221 208 203 203 202 207 212 211 211 211 207 204 202 199 195 189 186 183 177 174 173 171 170 168 164 163 163 155 147 149
191 200 203 205 219 235 241 240 238 247 261 264 260 254 251 252 252 248 244 244 246 248 249 251 252 255 255 253 251 252 250 246 244 246 249 252 253 247 239 235 233 232 233 234 233 233 231 229 230 231 231 233 233 229 225 218 207 201 197 194 197 201 200 200 200 199 201 200 192 187 182 178 177 174 173 174 175 175 169 159 159 161 153 146 152
183 188 189 188 195 212 241 259 257 255 260 260 265 267 262 256 256 258 256 252 250 251 253 254 254 255 256 253 251 253 254 251 249 249 250 249 251 254 250 242 238 235 234 234 234 233 232 230 229 229 230 233 233 228 221 213 206 200 194 189 189 188 186 184 181 179 184 184 177 174 173 172 173 170 169 171 176 181 177 165 162 162 154 151 159
176 170 161 158 160 165 212 239 231 225 207 201 218 240 250 253 260 266 265 261 257 256 258 259 257 255 255 255 255 257 258 258 256 254 253 252 253 256 257 253 247 240 236 235 237 235 233 233 232 231 231 232 232 228 218 209 205 202 196 189 184 182 180 176 171 165 162 161 159 159 159 161 163 161 162 165 168 175 178 170 166 165 160 159 161
160 147 128 120 108 86 41 26 20 357 5 140 189 225 247 261 268 269 270 270 267 263 263 263 259 257 260 261 259 258 259 260 260 259 257 257 257 254 254 254 251 246 241 238 240 242 240 237 235 235 232 229 229 227 219 211 208 204 199 192 187 185 181 173 167 163 158 153 151 150 150 151 153 153 153 157 159 162 167 165 164 166 165 166 165
133 125 121 125 118 80 53 42 34 22 22 27 19 336 291 290 290 284 282 282 277 272 270 266 263 263 265 265 263 261 261 261 263 264 263 262 259 253 253 254 252 250 250 246 243 248 248 245 245 244 237 230 229 226 220 216 212 208 204 200 196 192 181 168 162 160 155 149 146 145 145 146 145 146 148 148 150 151 151 153 158 163 168 172 172
131 120 116 133 163 136 89 89 71 62 83 85 20 354 335 318 304 298 299 296 290 287 284 277 271 270 270 269 268 267 267 266 267 266 264 263 262 257 255 258 257 254 258 258 251 248 246 244 246 246 239 233 230 227 222 217 213 210 206 202 198 190 177 167 162 159 153 149 146 143 142 142 141 142 143 143 144 146 148 154 163 169 176 180 179
170 166 169 184 202 186 153 167 182 192 186 160 110 356 312 307 306 302 302 298 290 287 286 282 277 277 278 278 277 276 276 275 276 275 269 265 264 261 259 262 264 258 253 252 252 251 248 244 242 241 238 233 229 228 226 218 211 207 205 201 197 188 175 167 163 159 153 149 146 143 142 143 142 141 143 144 147 152 157 162 168 174 178 178 178
182 193 206 219 235 227 213 222 231 226 197 148 121 255 251 234 280 315 299 281 274 276 279 277 273 273 277 278 279 283 287 286 285 284 274 260 256 260 262 264 267 264 252 246 247 250 249 246 244 244 242 235 228 228 227 216 207 205 204 199 191 180 171 166 163 159 154 150 147 144 144 144 144 144 147 149 153 158 163 166 169 173 172 167 166
202 224 233 233 241 247 239 229 237 249 232 167 178 231 230 207 192 217 287 269 257 258 265 270 275 276 274 277 281 286 291 290 289 291 282 262 254 260 266 268 272 273 257 242 242 247 249 249 250 248 242 234 227 224 220 211 203 201 196 187 176 168 164 161 157 153 148 145 142 139 137 139 140 142 146 151 155 161 165 167 167 167 164 159 155
207 227 250 247 249 260 250 231 218 205 210 237 259 236 227 209 187 173 290 287 272 262 251 245 252 267 269 266 269 279 288 288 286 289 291 288 277 271 273 276 278 277 248 228 237 244 243 243 244 236 225 219 212 204 197 188 179 175 170 165 162 160 158 155 151 145 138 133 128 124 126 131 135 139 146 151 153 158 163 164 162 162 160 154 142
211 215 233 237 239 247 250 260 262 218 186 195 39 50 31 14 72 86 5 331 328 319 296 268 257 271 281 266 250 266 289 288 276 279 292 302 306 300 293 289 278 264 228 193 205 216 201 188 179 172 171 171 164 156 151 145 141 141 143 145 146 146 145 143 140 135 131 128 126 126 130 135 138 143 147 149 153 159 163 162 159 157 155 148 140
215 216 221 227 231 238 247 264 271 221 167 179 216 49 19 20 48 54 6 340 331 317 314 318 314 311 323 328 302 291 301 288 240 256 278 289 292 297 300 291 239 182 168 146 132 132 136 134 132 133 132 126 121 121 119 118 119 124 127 129 129 129 131 133 132 130 130 132 133 134 138 142 146 148 149 153 161 167 165 161 158 153 148 145 143
217 224 227 224 221 229 242 248 239 191 151 154 176 164 102 62 67 39 321 314 301 278 281 303 312 318 338 344 330 311 316 335 262 261 261 257 258 268 287 258 176 150 146 140 130 126 125 124 124 126 123 114 110 111 112 112 115 119 123 127 131 135 138 140 139 139 140 141 139 140 144 148 151 152 155 163 170 170 167 165 161 154 151 150 148
213 226 232 231 224 227 235 235 233 211 141 127 130 126 110 98 107 198 284 301 298 266 251 261 272 287 331 334 318 296 288 295 284 272 259 245 245 259 271 174 152 141 138 137 130 124 120 117 117 119 120 118 116 115 117 118 120 121 124 129 134 136 137 138 139 141 143 143 143 146 149 151 153 159 167 173 173 173 175 174 167 160 157 156 154
205 215 223 231 245 261 262 285 332 336 110 120 129 139 145 161 205 244 274 303 304 277 259 262 266 255 244 293 302 292 278 275 267 246 178 149 147 123 124 139 139 135 134 130 122 115 114 114 113 113 114 115 115 116 118 120 121 122 123 128 132 133 136 139 141 143 144 145 148 152 153 153 159 168 175 174 173 178 180 174 168 166 166 165 164
207 216 215 214 232 261 275 310 336 336 104 130 150 174 182 189 201 218 239 79 49 330 297 273 263 226 187 205 250 249 238 236 181 135 117 115 119 119 123 130 129 126 124 118 111 110 114 116 116 117 117 116 119 124 127 127 128 129 129 131 136 140 143 146 147 147 149 152 156 157 157 160 167 173 173 170 171 176 175 170 169 173 179 179 172
218 224 210 192 191 218 244 263 281 286 276 235 211 209 217 212 192 180 172 123 99 87 80 194 175 150 135 131 132 162 180 164 142 133 122 118 119 120 123 126 124 119 115 111 109 114 120 121 123 127 128 129 131 134 136 135 134 135 135 137 142 148 152 153 153 155 159 161 160 160 163 168 171 173 171 169 170 173 175 175 175 180 188 185 171
228 231 211 190 184 190 207 227 238 245 257 259 243 231 243 245 208 176 166 151 136 129 121 130 137 126 110 102 104 124 142 140 137 134 127 123 124 125 126 128 127 123 120 119 123 129 132 133 136 138 141 143 143 142 143 143 142 143 144 147 150 154 157 159 161 164 165 165 163 164 168 172 172 172 170 169 171 176 179 180 181 185 191 182 168
224 214 200 194 198 208 216 222 225 229 241 251 249 242 251 261 239 196 186 182 170 148 126 115 113 105 99 98 104 118 132 135 137 137 133 130 131 131 134 138 140 137 133 132 135 141 144 144 146 148 148 150 149 148 149 151 151 151 152 153 156 158 162 166 169 169 167 168 169 170 172 172 173 172 171 171 175 180 182 183 186 188 189 181 173
225 207 191 193 212 228 229 219 217 229 239 246 250 256 262 265 257 242 224 196 161 134 121 117 105 84 85 98 109 123 134 137 139 140 139 138 138 139 142 149 151 145 144 146 148 151 153 151 152 153 153 153 154 154 155 157 159 159 159 161 163 165 168 171 173 172 170 171 172 173 173 173 174 173 172 175 181 183 183 185 187 187 189 185 180
239 231 211 203 211 222 221 209 211 229 242 248 251 263 267 260 254 261 258 189 137 126 127 132 121 89 80 104 119 132 141 144 147 149 149 151 153 152 146 142 144 144 147 151 153 157 158 156 155 155 157 158 158 158 159 161 163 163 164 165 166 167 169 173 175 176 176 175 175 175 174 174 176 176 176 180 184 185 186 187 187 189 193 190 184
249 247 232 215 209 207 203 201 209 231 247 253 255 260 265 263 261 267 268 156 131 131 134 139 146 162 161 145 140 146 150 154 160 166 169 172 178 191 229 138 148 154 154 155 159 162 161 159 159 160 162 164 164 164 164 165 166 166 165 165 167 169 171 173 175 177 178 178 178 178 178 178 180 181 182 184 185 187 191 191 189 192 196 192 187
241 237 234 223 203 197 204 196 194 216 242 250 255 263 267 269 273 275 263 154 143 140 135 147 175 186 175 172 169 163 163 166 172 180 187 190 196 219 258 230 176 170 163 160 166 172 171 168 166 165 167 169 170 170 169 168 169 169 168 166 168 171 173 174 175 178 181 182 180 180 182 184 185 186 188 189 189 192 195 194 191 193 194 191 189
239 223 224 224 210 207 231 216 199 213 239 241 239 253 263 271 279 282 273 231 185 161 170 192 195 179 175 190 191 178 175 182 188 192 200 207 217 241 263 240 192 175 170 171 177 182 177 169 163 164 170 174 174 173 172 171 171 171 171 170 171 174 176 176 177 180 184 185 183 182 186 188 187 188 192 193 192 195 198 195 192 191 190 189 191
261 234 212 210 209 210 225 232 222 222 236 239 233 237 247 255 266 279 283 277 243 204 209 211 192 176 186 207 205 193 189 199 205 201 209 227 236 246 256 238 200 175 171 178 187 184 172 164 162 168 174 176 176 176 176 176 174 174 175 176 176 178 179 181 183 185 188 190 187 186 189 191 188 189 194 195 194 196 197 194 191 190 187 187 193
317 315 289 219 217 227 248 263 250 222 213 227 239 242 244 246 247 253 267 273 259 231 221 201 171 177 199 220 211 201 201 213 223 216 221 239 242 237 244 243 212 178 173 188 197 193 179 173 176 181 181 181 181 181 180 181 180 179 179 181 181 181 182 186 187 187 190 193 190 187 190 193 191 190 194 196 193 194 195 192 190 190 186 187 196
333 328 318 285 251 245 261 273 271 245 209 216 237 245 246 247 247 244 251 260 255 233 220 196 170 179 197 210 205 206 213 228 242 230 225 237 240 235 247 251 218 178 175 187 189 191 192 185 183 188 189 186 185 186 185 185 185 183 183 186 186 184 184 188 189 188 191 195 192 187 189 193 191 191 194 196 193 192 193 192 191 190 189 191 197
327 324 313 300 295 293 289 294 301 300 277 233 227 236 241 245 248 247 251 261 260 238 224 206 178 177 190 188 184 198 212 228 248 242 226 232 241 239 245 253 230 190 182 184 183 188 195 191 188 192 194 190 189 190 190 189 189 188 188 190 190 188 188 190 191 189 192 195 193 188 189 193 192 191 195 196 193 192 193 192 192 191 191 193 194
323 332 326 326 338 345 340 339 340 335 324 298 250 228 228 242 254 253 251 258 264 261 249 219 181 176 190 191 186 192 203 215 236 246 232 232 243 244 243 251 242 203 182 183 191 197 200 196 193 194 195 193 193 194 195 194 194 194 195 195 195 193 192 194 195 193 193 195 195 190 190 192 193 192 195 196 194 193 194 193 193 193 193 194 193
318 330 332 340 356 3 357 355 355 349 340 330 313 287 254 238 248 255 255 254 254 262 271 249 185 173 186 194 192 195 202 208 224 239 230 224 234 239 240 249 251 225 195 194 202 204 203 199 195 196 198 197 196 197 199 199 198 198 200 201 200 198 197 198 198 196 193 196 197 192 191 193 194 194 196 197 195 195 196 195 195 196 195 195 196
340 346 349 359 5 2 354 349 351 358 360 350 333 319 308 283 256 250 250 248 241 251 273 267 193 175 187 199 196 197 200 206 220 235 231 222 225 232 238 247 252 244 229 218 209 204 205 205 202 203 204 202 198 199 202 202 201 202 204 204 203 202 200 200 201 199 196 197 199 196 194 195 195 196 198 198 194 196 200 198 195 197 197 196 197
1 354 353 356 353 345 340 335 332 343 5 5 339 328 330 330 321 299 277 263 248 245 258 261 221 189 191 197 197 196 197 202 215 233 241 236 232 234 240 245 245 244 244 233 212 203 206 209 209 211 210 205 201 201 204 205 205 206 207 207 208 207 202 200 202 202 198 197 200 201 198 197 197 198 201 200 195 198 203 201 195 196 197 197 199
4 354 353 356 356 348 338 329 322 324 338 345 334 332 338 340 339 341 348 349 329 289 270 267 258 236 216 204 198 196 195 198 210 226 242 251 249 242 241 242 241 243 249 242 218 205 207 210 211 213 214 210 205 204 205 207 209 210 209 209 211 211 207 202 203 204 200 197 200 203 202 200 199 200 203 203 199 200 205 203 197 196 197 197 199
9 6 8 12 17 13 356 346 343 337 332 335 331 321 315 314 319 327 339 348 347 338 329 320 309 300 289 260 219 202 197 201 210 218 229 245 255 253 247 243 239 240 246 246 230 216 214 213 212 214 216 215 211 208 208 210 211 212 212 211 211 213 211 205 203 204 202 199 200 203 204 203 201 203 205 205 201 201 205 205 199 197 197 197 199
28 29 30 31 35 37 28 19 19 14 0 360 358 340 316 303 303 307 310 315 326 333 334 336 338 339 337 336 336 332 270 233 235 234 233 240 250 253 252 248 242 238 241 243 237 228 223 219 215 215 217 217 216 213 211 212 213 214 215 215 214 214 213 208 205 206 205 201 200 203 206 206 204 204 207 206 202 202 206 206 202 199 198 198 200